TimeCDT,TemperatureF,Dew PointF,Humidity,Sea Level PressureIn,VisibilityMPH,Wind Direction,Wind SpeedMPH,Gust SpeedMPH,PrecipitationIn,Events,Conditions,WindDirDegrees,DateUTC
12:15 AM,62.6,56.1,79,30.07,10.0,North,3.5,-,N/A,,Clear,350,2013-07-11 05:15:00
12:35 AM,62.2,56.3,81,30.08,10.0,Calm,Calm,-,N/A,,Clear,0,2013-07-11 05:35:00
12:55 AM,62.6,56.7,81,30.08,10.0,Calm,Calm,-,N/A,,Clear,0,2013-07-11 05:55:00
1:35 AM,61.2,56.5,85,30.09,10.0,Calm,Calm,-,N/A,,Clear,0,2013-07-11 06:35:00
1:55 AM,61.5,56.1,82,30.09,10.0,Calm,Calm,-,N/A,,Clear,0,2013-07-11 06:55:00
2:15 AM,60.3,55.4,84,30.09,10.0,Calm,Calm,-,N/A,,Clear,0,2013-07-11 07:15:00
2:35 AM,59.9,55.4,85,30.09,10.0,Calm,Calm,-,N/A,,Clear,0,2013-07-11 07:35:00
2:55 AM,59.7,55.4,86,30.09,10.0,Calm,Calm,-,N/A,,Clear,0,2013-07-11 07:55:00
3:15 AM,60.3,55.8,85,30.09,10.0,Calm,Calm,-,N/A,,Clear,0,2013-07-11 08:15:00
3:35 AM,61.5,56.5,83,30.09,10.0,Calm,Calm,-,N/A,,Clear,0,2013-07-11 08:35:00
3:55 AM,60.3,55.8,85,30.09,10.0,Calm,Calm,-,N/A,,Clear,0,2013-07-11 08:55:00
4:15 AM,60.1,55.8,86,30.10,10.0,Calm,Calm,-,N/A,,Clear,0,2013-07-11 09:15:00
4:35 AM,59.4,55.4,87,30.10,10.0,Calm,Calm,-,N/A,,Clear,0,2013-07-11 09:35:00
4:55 AM,59.5,54.9,84,30.10,10.0,Calm,Calm,-,N/A,,Clear,0,2013-07-11 09:55:00
5:15 AM,59.2,55.0,86,30.10,10.0,NE,3.5,-,N/A,,Scattered Clouds,40,2013-07-11 10:15:00
5:35 AM,60.8,55.4,82,30.10,10.0,Calm,Calm,-,N/A,,Scattered Clouds,0,2013-07-11 10:35:00
6:15 AM,58.3,54.7,88,30.11,7.0,Calm,Calm,-,N/A,,Clear,0,2013-07-11 11:15:00
6:35 AM,59.4,55.6,87,30.11,7.0,Calm,Calm,-,N/A,,Scattered Clouds,0,2013-07-11 11:35:00
6:55 AM,62.6,56.3,80,30.13,7.0,Calm,Calm,-,N/A,,Clear,0,2013-07-11 11:55:00
7:15 AM,62.8,57.2,82,30.13,7.0,Calm,Calm,-,N/A,,Clear,0,2013-07-11 12:15:00
7:35 AM,64.6,57.2,77,30.13,7.0,East,3.5,-,N/A,,Scattered Clouds,90,2013-07-11 12:35:00
7:55 AM,67.1,57.4,71,30.13,10.0,ESE,4.6,-,N/A,,Clear,110,2013-07-11 12:55:00
8:15 AM,69.3,57.7,67,30.13,10.0,ESE,5.8,-,N/A,,Clear,110,2013-07-11 13:15:00
8:35 AM,71.1,58.3,64,30.13,10.0,SE,5.8,-,N/A,,Clear,140,2013-07-11 13:35:00
8:55 AM,72.7,55.8,55,30.13,10.0,SE,9.2,-,N/A,,Clear,130,2013-07-11 13:55:00
9:15 AM,74.7,56.8,54,30.13,10.0,SSE,8.1,-,N/A,,Clear,150,2013-07-11 14:15:00
9:35 AM,75.4,53.6,47,30.13,10.0,SE,10.4,-,N/A,,Clear,140,2013-07-11 14:35:00
9:55 AM,77.0,52.9,43,30.13,10.0,SE,9.2,-,N/A,,Clear,140,2013-07-11 14:55:00
10:15 AM,77.9,53.4,43,30.12,10.0,SE,9.2,-,N/A,,Clear,140,2013-07-11 15:15:00
10:35 AM,78.1,53.2,42,30.11,10.0,SE,10.4,-,N/A,,Clear,130,2013-07-11 15:35:00
10:55 AM,79.0,50.5,37,30.11,10.0,SE,8.1,-,N/A,,Clear,140,2013-07-11 15:55:00
11:15 AM,79.7,51.1,37,30.13,10.0,ESE,8.1,-,N/A,,Clear,120,2013-07-11 16:15:00
11:35 AM,80.1,51.3,37,30.12,10.0,SE,5.8,-,N/A,,Clear,130,2013-07-11 16:35:00
11:55 AM,81.0,52.3,37,30.11,10.0,SSE,9.2,-,N/A,,Clear,160,2013-07-11 16:55:00
12:15 PM,81.1,51.8,36,30.11,10.0,SE,8.1,-,N/A,,Clear,140,2013-07-11 17:15:00
12:55 PM,82.4,52.0,35,30.10,10.0,ESE,9.2,-,N/A,,Clear,110,2013-07-11 17:55:00
1:15 PM,82.4,49.5,32,30.09,10.0,SE,10.4,-,N/A,,Clear,130,2013-07-11 18:15:00
1:35 PM,83.3,50.2,32,30.09,10.0,ESE,8.1,-,N/A,,Clear,120,2013-07-11 18:35:00
1:55 PM,82.9,51.4,33,30.09,10.0,SSE,9.2,-,N/A,,Clear,150,2013-07-11 18:55:00
2:15 PM,83.1,51.3,33,30.09,10.0,SSE,10.4,16.1,N/A,,Clear,160,2013-07-11 19:15:00
2:35 PM,83.3,49.6,31,30.09,10.0,SSE,10.4,-,N/A,,Clear,150,2013-07-11 19:35:00
2:55 PM,83.5,50.2,31,30.08,10.0,SE,11.5,-,N/A,,Clear,130,2013-07-11 19:55:00
3:15 PM,84.4,48.4,29,30.08,10.0,SSE,8.1,-,N/A,,Clear,160,2013-07-11 20:15:00
3:35 PM,84.4,52.0,33,30.08,10.0,SSE,8.1,-,N/A,,Clear,160,2013-07-11 20:35:00
3:55 PM,84.6,50.9,31,30.07,10.0,SSE,9.2,-,N/A,,Clear,160,2013-07-11 20:55:00
4:35 PM,84.6,49.1,29,30.06,10.0,SE,10.4,-,N/A,,Clear,130,2013-07-11 21:35:00
4:55 PM,84.2,49.6,30,30.06,10.0,SE,12.7,-,N/A,,Clear,140,2013-07-11 21:55:00
5:15 PM,84.4,51.1,32,30.06,10.0,South,10.4,-,N/A,,Clear,180,2013-07-11 22:15:00
5:35 PM,83.5,50.7,32,30.05,10.0,South,9.2,-,N/A,,Clear,170,2013-07-11 22:35:00
5:55 PM,83.3,52.2,34,30.04,10.0,SSE,9.2,-,N/A,,Clear,160,2013-07-11 22:55:00
6:15 PM,82.8,52.5,35,30.04,10.0,SSE,9.2,-,N/A,,Clear,160,2013-07-11 23:15:00
6:35 PM,82.4,52.9,36,30.04,10.0,South,9.2,-,N/A,,Clear,170,2013-07-11 23:35:00
6:55 PM,81.9,51.8,35,30.04,10.0,SSE,8.1,-,N/A,,Clear,160,2013-07-11 23:55:00
7:35 PM,80.4,54.1,40,30.03,10.0,SE,8.1,-,N/A,,Clear,140,2013-07-12 00:35:00
7:55 PM,79.2,54.0,42,30.03,10.0,SE,8.1,-,N/A,,Clear,130,2013-07-12 00:55:00
8:15 PM,77.9,55.4,46,30.02,10.0,SE,6.9,-,N/A,,Clear,130,2013-07-12 01:15:00
8:35 PM,75.6,56.1,51,30.02,10.0,SE,6.9,-,N/A,,Clear,130,2013-07-12 01:35:00
8:55 PM,74.3,55.9,53,30.02,10.0,SE,5.8,-,N/A,,Clear,130,2013-07-12 01:55:00
9:15 PM,72.1,56.5,58,30.02,10.0,ESE,6.9,-,N/A,,Clear,120,2013-07-12 02:15:00
9:35 PM,72.9,56.3,56,30.02,10.0,SE,6.9,-,N/A,,Clear,130,2013-07-12 02:35:00
9:55 PM,71.8,56.3,58,30.03,10.0,SE,6.9,-,N/A,,Clear,130,2013-07-12 02:55:00
10:15 PM,70.5,56.5,61,30.03,10.0,ESE,5.8,-,N/A,,Clear,110,2013-07-12 03:15:00
10:35 PM,68.4,56.8,67,30.04,10.0,SE,5.8,-,N/A,,Clear,140,2013-07-12 03:35:00
10:55 PM,67.5,57.0,69,30.04,10.0,SE,5.8,-,N/A,,Clear,140,2013-07-12 03:55:00
11:15 PM,66.4,57.2,72,30.05,10.0,SSE,6.9,-,N/A,,Clear,150,2013-07-12 04:15:00
11:35 PM,66.0,57.2,73,30.05,10.0,SSE,6.9,-,N/A,,Clear,160,2013-07-12 04:35:00
11:55 PM,66.4,56.7,71,30.05,10.0,SSE,6.9,-,N/A,,Clear,150,2013-07-12 04:55:00